Starlink 11119

operational
NORAD ID: 60121 Int'l Des: 2024-118 Owner: SPXS Country: US Constellation: starlink
LEOCIRCULAR

关于 Starlink 11119

正在加载描述...

实时位置

正在加载3D地球...

即将过境

高度历史

Altitude vs Time

uPlot chart will show altitude changes over time

两行轨道根数

1 60121U 24118J 25351.15455179 -.00000838 00000-0 -20485-5 0 9994
2 60121 53.1585 267.8771 0001715 89.9299 270.1915 15.69708914 85038
Epoch: Dec 17, 2025 • Age: 21 hours

当前状态

高度 375.4 km
速度 7.68 km/s
星下点 -43.74°S, 33.34°E
发射日期 Jun 24, 2024
运行时间 1.4 years
类型 internet

技术详情

分类 Payload
质量 960.00 kg
干质量 910.00 kg
总质量 960.00 kg
长度 0.30 m
直径 4.10 m
跨度 29.00 m
形状 Box + pan
制造商 SPXS
平台类型 Starlink V2MD
阶段状态 In Orbit
所有者/国家 SPXS/US

大型星座

Loading constellations...